This demonstration page uses our WeatherBlox Daily Observations layout. Learn more.

Left ArrowRight Arrow

38.80484, -77.04692

Hourly Observations for January 17, 2022

Temp ( °F °C ) Dew Point ( °F °C ) Humidity (%) Winds ( mph kmh ) Pressure ( in mb ) Visibility ( mi km ) Precip ( " mm )
12:02 am 00:02 Cloudy 39 3.9 36 2.2 89 89 Calm 29.18 988 10 16 0.00 0.00
12:13 am 00:13 Cloudy with Light Rain 40 4.4 37 2.8 89 89 Calm 29.17 988 10 16 0.00 0.00
12:28 am 00:28 Cloudy with Light Rain 39 3.9 35 1.7 86 86 W 3 6 29.15 987 4 6 0.01 0.25
12:30 am 00:30 Cloudy with Light Rain 39 3.9 35 1.7 86 86 NE 5 7 29.15 987 4 6 0.01 0.25
12:36 am 00:36 Cloudy with Light Rain 38 3.3 36 2.2 93 93 VRB 5 7 29.16 988 4 6 0.01 0.25
12:42 am 00:42 Cloudy with Light Rain 38 3.3 36 2.2 93 93 Calm 29.14 987 5 8 0.01 0.25
12:48 am 00:48 Cloudy 39 4 37 3 93 93 S 3 6 29.14 987 9 14 0.02 0.51
12:52 am 00:52 Cloudy 40 4.4 38 3.3 93 93 S 5 7 29.14 987 10 16 0.02 0.51
12:55 am 00:55 Cloudy with Drizzle 39 3.9 37 2.8 93 93 SSW 6 9 29.14 987 10 16 0.00 0.00
1:52 am 01:52 Cloudy 39 3.9 35 1.7 86 86 SSW 28 44 29.14 987 9 14 0.00 0.00
2:02 am 02:02 Cloudy with Drizzle 38 3.3 35 1.7 89 89 SSW 23 37 29.13 987 10 16 0.00 0.00
2:52 am 02:52 Cloudy 37 2.8 33 0.6 86 86 S 17 28 29.13 986 10 16 0.00 0.00
3:52 am 03:52 Cloudy 36 2.2 31 -0.6 82 82 SSW 20 31 29.13 986 10 16 0.00 0.00
4:52 am 04:52 Cloudy 35 1.7 30 -1.1 82 82 SSW 17 28 29.12 986 10 16 0.00 0.00
5:26 am 05:26 Windy with Snow Likely 35 1.7 30 -1.1 82 82 SSW 21 33 29.13 987 5 8 0.00 0.00
5:46 am 05:46 Cloudy 36 2 30 -1 81 81 SSW 15 24 29.13 987 9 14 0.00 0.00
5:52 am 05:52 Cloudy 35 1.7 30 -1.1 82 82 SSW 16 26 29.13 987 10 16 0.00 0.00
6:02 am 06:02 Cloudy 35 1.7 30 -1.1 82 82 SSW 16 26 29.14 987 10 16 0.00 0.00
6:42 am 06:42 Cloudy with Light Snow 35 1.7 30 -1.1 82 82 SW 15 24 29.18 988 10 16 0.00 0.00
6:52 am 06:52 Cloudy with Light Snow 35 1.7 30 -1.1 82 82 SW 16 26 29.18 988 6 10 0.00 0.00
7:16 am 07:16 Cloudy 35 1.7 30 -1.1 82 82 SW 13 20 29.19 989 9 14 0.00 0.00
7:52 am 07:52 Cloudy 35 1.7 30 -1.1 82 82 SSW 13 20 29.20 989 10 16 0.00 0.00
8:52 am 08:52 Mostly Cloudy 37 2.8 30 -1.1 76 76 SW 13 20 29.22 990 10 16 0.00 0.00
9:52 am 09:52 Mostly Cloudy 38 3.3 29 -1.7 70 70 WSW 14 22 29.25 990 10 16 0.00 0.00
10:52 am 10:52 Cloudy 40 4.4 28 -2.2 63 63 WSW 14 22 29.29 992 10 16 0.00 0.00
11:52 am 11:52 Mostly Cloudy 40 4.4 23 -5 51 51 W 20 31 29.29 992 9 14 0.00 0.00
12:52 pm 12:52 Mostly Cloudy 40 4.4 20 -6.7 45 45 W 23 37 29.32 993 10 16 0.00 0.00
1:52 pm 13:52 Mostly Cloudy 39 3.9 19 -7.2 45 45 W 16 26 29.35 994 10 16 0.00 0.00
2:52 pm 14:52 Cloudy 38 3.3 19 -7.2 46 46 WNW 15 24 29.40 996 10 16 0.00 0.00
3:52 pm 15:52 Cloudy 37 2.8 18 -7.8 46 46 W 22 35 29.44 997 10 16 0.00 0.00
4:52 pm 16:52 Cloudy 36 2.2 17 -8.3 46 46 W 24 39 29.48 998 10 16 0.00 0.00
5:52 pm 17:52 Cloudy 36 2.2 14 -10 40 40 W 17 28 29.51 999 10 16 0.00 0.00
6:52 pm 18:52 Mostly Cloudy 36 2.2 13 -10.6 39 39 W 14 22 29.56 1001 10 16 0.00 0.00
7:52 pm 19:52 Partly Cloudy 36 2.2 16 -8.9 44 44 WNW 20 31 29.59 1002 10 16 0.00 0.00
8:52 pm 20:52 Partly Cloudy 36 2.2 17 -8.3 46 46 WNW 18 30 29.63 1003 10 16 0.00 0.00
9:52 pm 21:52 Partly Cloudy 35 1.7 17 -8.3 48 48 WNW 23 37 29.66 1004 10 16 0.00 0.00
10:52 pm 22:52 Cloudy 35 1.7 17 -8.3 48 48 NW 15 24 29.71 1006 10 16 0.00 0.00
11:52 pm 23:52 Cloudy 35 1.7 17 -8.3 48 48 WNW 14 22 29.74 1007 10 16 0.00 0.00

Powered by AerisWeather